TimeMST,TemperatureF,Dew PointF,Humidity,Sea Level PressureIn,VisibilityMPH,Wind Direction,Wind SpeedMPH,Gust SpeedMPH,PrecipitationIn,Events,Conditions,WindDirDegrees,DateUTC
12:55 AM,37.4,6.8,28,30.05,10.0,East,3.5,-,N/A,,Clear,90,2012-12-11 07:55:00
1:55 AM,36.0,6.8,30,30.04,10.0,SE,9.2,-,N/A,,Clear,130,2012-12-11 08:55:00
2:55 AM,36.1,6.8,29,30.04,10.0,Calm,Calm,-,N/A,,Clear,0,2012-12-11 09:55:00
3:55 AM,36.0,6.8,30,30.04,10.0,ESE,5.8,-,N/A,,Clear,110,2012-12-11 10:55:00
4:55 AM,35.4,6.8,30,30.04,10.0,SSE,5.8,-,N/A,,Clear,150,2012-12-11 11:55:00
5:55 AM,35.1,6.8,31,30.05,10.0,SSE,3.5,-,N/A,,Clear,150,2012-12-11 12:55:00
6:55 AM,32.5,6.4,33,30.07,10.0,SSE,4.6,-,N/A,,Clear,160,2012-12-11 13:55:00
7:55 AM,35.6,6.4,30,30.08,10.0,SSE,3.5,-,N/A,,Clear,150,2012-12-11 14:55:00
8:58 AM,43.7,7.9,23,30.07,10.0,South,8.1,-,N/A,,Clear,170,2012-12-11 15:58:00
9:58 AM,48.9,9.7,21,30.09,10.0,West,2.3,-,N/A,,Clear,280,2012-12-11 16:58:00
10:58 AM,53.2,10.9,18,30.09,10.0,North,2.3,-,N/A,,Clear,360,2012-12-11 17:58:00
11:58 AM,58.3,12.6,17,30.06,10.0,Variable,3.5,-,N/A,,Clear,0,2012-12-11 18:58:00
12:58 PM,62.1,12.6,14,30.02,10.0,North,5.8,-,N/A,,Clear,360,2012-12-11 19:58:00
1:58 PM,63.9,10.6,12,30.00,10.0,Variable,1.2,-,N/A,,Clear,0,2012-12-11 20:58:00
2:58 PM,64.2,8.8,11,29.99,10.0,North,2.3,-,N/A,,Clear,350,2012-12-11 21:58:00
3:58 PM,64.6,9.1,11,29.98,10.0,NNE,2.3,-,N/A,,Clear,20,2012-12-11 22:58:00
4:58 PM,62.2,10.4,13,29.98,10.0,NW,3.5,-,N/A,,Clear,310,2012-12-11 23:58:00
5:58 PM,57.4,10.4,16,29.99,10.0,WNW,8.1,-,N/A,,Clear,300,2012-12-12 00:58:00
6:58 PM,53.1,12.0,20,30.01,10.0,NW,6.9,-,N/A,,Clear,320,2012-12-12 01:58:00
7:58 PM,52.7,12.9,21,30.02,10.0,Calm,Calm,-,N/A,,Clear,0,2012-12-12 02:58:00
8:58 PM,49.3,12.0,22,30.02,10.0,Calm,Calm,-,N/A,,Clear,0,2012-12-12 03:58:00
9:58 PM,42.6,10.0,26,30.03,10.0,SE,9.2,-,N/A,,Clear,130,2012-12-12 04:58:00
10:58 PM,42.1,7.9,25,30.02,10.0,ESE,5.8,-,N/A,,Clear,120,2012-12-12 05:58:00
11:58 PM,42.3,7.0,23,30.02,10.0,SSE,4.6,-,N/A,,Clear,160,2012-12-12 06:58:00